| time (UTC) | temp F | wind direction | speed MPH | gust MPH | rain 1hr in | rain 24hr in | rain mn in | humidity % | barometer mb |
| 20260510170637 | 63 | 74 | 7.0 | 5.0 | 0.00 | 0.00 | 0.00 | 31 | 1019.7 |
| 20260510170136 | 63 | 60 | 4.0 | 5.0 | 0.00 | 0.00 | 0.00 | 32 | 1019.6 |
| 20260510165636 | 61 | 120 | 5.0 | 6.0 | 0.00 | 0.00 | 0.00 | 33 | 1019.6 |
| 20260510165136 | 60 | 50 | 4.0 | 6.0 | 0.00 | 0.00 | 0.00 | 34 | 1019.6 |
| 20260510164636 | 61 | 58 | 6.0 | 5.0 | 0.00 | 0.00 | 0.00 | 33 | 1019.6 |
| 20260510164137 | 61 | 66 | 3.0 | 6.0 | 0.00 | 0.00 | 0.00 | 34 | 1019.6 |
| 20260510163637 | 61 | 70 | 3.0 | 5.0 | 0.00 | 0.00 | 0.00 | 35 | 1019.6 |
| 20260510163137 | 60 | 82 | 5.0 | 5.0 | 0.00 | 0.00 | 0.00 | 35 | 1019.6 |
| 20260510162636 | 60 | 48 | 4.0 | 6.0 | 0.00 | 0.00 | 0.00 | 35 | 1019.4 |
| 20260510162137 | 60 | 63 | 6.0 | 6.0 | 0.00 | 0.00 | 0.00 | 36 | 1019.5 |
| 20260510161636 | 60 | 106 | 4.0 | 6.0 | 0.00 | 0.00 | 0.00 | 35 | 1019.4 |
| 20260510161136 | 60 | 55 | 8.0 | 6.0 | 0.00 | 0.00 | 0.00 | 37 | 1019.3 |
| 20260510160636 | 60 | 79 | 4.0 | 6.0 | 0.00 | 0.00 | 0.00 | 37 | 1019.3 |
| 20260510160136 | 61 | 81 | 6.0 | 6.0 | 0.00 | 0.00 | 0.00 | 35 | 1019.3 |
| 20260510155636 | 61 | 87 | 6.0 | 5.0 | 0.00 | 0.00 | 0.00 | 34 | 1019.2 |
| 20260510155137 | 62 | 72 | 5.0 | 4.0 | 0.00 | 0.00 | 0.00 | 33 | 1019.1 |
| 20260510154636 | 63 | 44 | 7.0 | 3.0 | 0.00 | 0.00 | 0.00 | 32 | 1019.1 |
| 20260510154137 | 63 | 108 | 2.0 | 3.0 | 0.00 | 0.00 | 0.00 | 32 | 1019.1 |
| 20260510153636 | 64 | 64 | 5.0 | 3.0 | 0.00 | 0.00 | 0.00 | 30 | 1019.1 |
| 20260510153136 | 64 | 33 | 2.0 | 2.0 | 0.00 | 0.00 | 0.00 | 31 | 1019.1 |
| 20260510152636 | 63 | 58 | 1.0 | 3.0 | 0.00 | 0.00 | 0.00 | 31 | 1019.0 |
| 20260510152136 | 63 | 83 | 1.0 | 3.0 | 0.00 | 0.00 | 0.00 | 31 | 1019.0 |
| 20260510151637 | 63 | 72 | 3.0 | 3.0 | 0.00 | 0.00 | 0.00 | 30 | 1019.0 |
| 20260510151137 | 63 | 82 | 1.0 | 3.0 | 0.00 | 0.00 | 0.00 | 31 | 1018.9 |
| 20260510150637 | 63 | 59 | 5.0 | 2.0 | 0.00 | 0.00 | 0.00 | 31 | 1018.9 |
| 20260510150137 | 62 | 68 | 4.0 | 2.0 | 0.00 | 0.00 | 0.00 | 33 | 1019.0 |
| 20260510145637 | 61 | 0 | 0.0 | 2.0 | 0.00 | 0.00 | 0.00 | 32 | 1018.9 |
| 20260510145137 | 62 | 62 | 4.0 | 2.0 | 0.00 | 0.00 | 0.00 | 32 | 1019.0 |
| 20260510144637 | 61 | 0 | 0.0 | 3.0 | 0.00 | 0.00 | 0.00 | 32 | 1018.9 |
| 20260510144137 | 60 | 106 | 1.0 | 2.0 | 0.00 | 0.00 | 0.00 | 33 | 1018.9 |
| 20260510143637 | 60 | 60 | 5.0 | 2.0 | 0.00 | 0.00 | 0.00 | 34 | 1018.9 |
| 20260510143137 | 59 | 106 | 2.0 | 2.0 | 0.00 | 0.00 | 0.00 | 33 | 1018.9 |
| 20260510142637 | 59 | 70 | 3.0 | 2.0 | 0.00 | 0.00 | 0.00 | 33 | 1018.9 |
| 20260510142137 | 59 | 171 | 1.0 | 2.0 | 0.00 | 0.00 | 0.00 | 33 | 1018.8 |
| 20260510141637 | 58 | 139 | 2.0 | 3.0 | 0.00 | 0.00 | 0.00 | 33 | 1018.7 |
| 20260510141137 | 58 | 1 | 1.0 | 4.0 | 0.00 | 0.00 | 0.00 | 32 | 1018.6 |
| 20260510140637 | 58 | 51 | 7.0 | 3.0 | 0.00 | 0.00 | 0.00 | 32 | 1018.6 |
| 20260510140137 | 58 | 65 | 3.0 | 3.0 | 0.00 | 0.00 | 0.00 | 33 | 1018.5 |
| 20260510135637 | 58 | 93 | 6.0 | 3.0 | 0.00 | 0.00 | 0.00 | 34 | 1018.5 |
| 20260510135138 | 58 | 94 | 3.0 | 3.0 | 0.00 | 0.00 | 0.00 | 34 | 1018.5 |
| 20260510134637 | 57 | 102 | 2.0 | 4.0 | 0.00 | 0.00 | 0.00 | 35 | 1018.4 |
| 20260510134137 | 57 | 83 | 3.0 | 3.0 | 0.00 | 0.00 | 0.00 | 34 | 1018.4 |
| 20260510133637 | 56 | 69 | 3.0 | 3.0 | 0.00 | 0.00 | 0.00 | 37 | 1018.3 |
| 20260510133137 | 56 | 86 | 2.0 | 4.0 | 0.00 | 0.00 | 0.00 | 37 | 1018.3 |
| 20260510132637 | 56 | 57 | 4.0 | 3.0 | 0.00 | 0.00 | 0.00 | 37 | 1018.1 |
| 20260510132137 | 55 | 52 | 3.0 | 3.0 | 0.00 | 0.00 | 0.00 | 37 | 1018.2 |
| 20260510131638 | 55 | 63 | 2.0 | 4.0 | 0.00 | 0.00 | 0.00 | 36 | 1018.1 |
| 20260510131137 | 55 | 49 | 5.0 | 4.0 | 0.00 | 0.00 | 0.00 | 37 | 1018.1 |
| 20260510130636 | 54 | 61 | 6.0 | 4.0 | 0.00 | 0.00 | 0.00 | 37 | 1018.1 |
| 20260510130137 | 54 | 63 | 8.0 | 3.0 | 0.00 | 0.00 | 0.00 | 39 | 1018.2 |
| 20260510125637 | 54 | 76 | 3.0 | 3.0 | 0.00 | 0.00 | 0.00 | 40 | 1018.1 |
| 20260510125137 | 53 | 48 | 1.0 | 3.0 | 0.00 | 0.00 | 0.00 | 41 | 1018.0 |
| 20260510124636 | 53 | 67 | 4.0 | 4.0 | 0.00 | 0.00 | 0.00 | 42 | 1017.9 |
| 20260510124137 | 53 | 81 | 3.0 | 3.0 | 0.00 | 0.00 | 0.00 | 44 | 1017.8 |
| 20260510123637 | 53 | 76 | 3.0 | 2.0 | 0.00 | 0.00 | 0.00 | 49 | 1017.6 |
| 20260510123137 | 53 | 76 | 1.0 | 2.0 | 0.00 | 0.00 | 0.00 | 54 | 1017.7 |
| 20260510122638 | 52 | 1 | 2.0 | 1.0 | 0.00 | 0.00 | 0.00 | 59 | 1017.5 |
| 20260510122138 | 51 | 55 | 4.0 | 1.0 | 0.00 | 0.00 | 0.00 | 65 | 1017.5 |
| 20260510121637 | 51 | 0 | 0.0 | 0.0 | 0.00 | 0.00 | 0.00 | 66 | 1017.4 |
| 20260510121137 | 50 | 58 | 1.0 | 0.0 | 0.00 | 0.00 | 0.00 | 67 | 1017.4 |
| 20260510120637 | 50 | 0 | 0.0 | 0.0 | 0.00 | 0.00 | 0.00 | 67 | 1017.3 |
| 20260510120137 | 49 | 0 | 0.0 | 1.0 | 0.00 | 0.00 | 0.00 | 67 | 1017.2 |
| 20260510115636 | 49 | 58 | 1.0 | 1.0 | 0.00 | 0.00 | 0.00 | 67 | 1017.1 |
| 20260510115137 | 49 | 0 | 0.0 | 1.0 | 0.00 | 0.00 | 0.00 | 68 | 1017.1 |
| 20260510114638 | 48 | 58 | 1.0 | 0.0 | 0.00 | 0.00 | 0.00 | 69 | 1017.1 |
| 20260510114137 | 47 | 0 | 0.0 | 0.0 | 0.00 | 0.00 | 0.00 | 70 | 1017.0 |
| 20260510113637 | 46 | 0 | 0.0 | 0.0 | 0.00 | 0.00 | 0.00 | 69 | 1016.9 |
| 20260510113137 | 46 | 0 | 0.0 | 0.0 | 0.00 | 0.00 | 0.00 | 69 | 1016.9 |
| 20260510112636 | 46 | 0 | 0.0 | 0.0 | 0.00 | 0.00 | 0.00 | 69 | 1016.9 |
| 20260510112137 | 45 | 58 | 1.0 | 0.0 | 0.00 | 0.00 | 0.00 | 68 | 1016.9 |
| 20260510111637 | 45 | 0 | 0.0 | 0.0 | 0.00 | 0.00 | 0.00 | 68 | 1016.8 |
| 20260510111137 | 45 | 0 | 0.0 | 0.0 | 0.00 | 0.00 | 0.00 | 68 | 1016.7 |
| 20260510110636 | 45 | 0 | 0.0 | 0.0 | 0.00 | 0.00 | 0.00 | 68 | 1016.6 |
| 20260510110137 | 45 | 0 | 0.0 | 0.0 | 0.00 | 0.00 | 0.00 | 67 | 1016.5 |
| 20260510105636 | 45 | 0 | 0.0 | 0.0 | 0.00 | 0.00 | 0.00 | 67 | 1016.5 |
| 20260510105137 | 45 | 58 | 1.0 | 0.0 | 0.00 | 0.00 | 0.00 | 65 | 1016.3 |
| 20260510104636 | 45 | 0 | 0.0 | 0.0 | 0.00 | 0.00 | 0.00 | 64 | 1016.3 |
| 20260510104137 | 46 | 0 | 0.0 | 0.0 | 0.00 | 0.00 | 0.00 | 63 | 1016.3 |
| 20260510103636 | 46 | 0 | 0.0 | 0.0 | 0.00 | 0.00 | 0.00 | 63 | 1016.3 |
| 20260510103138 | 46 | 0 | 0.0 | 0.0 | 0.00 | 0.00 | 0.00 | 63 | 1016.2 |
| 20260510102636 | 46 | 0 | 0.0 | 0.0 | 0.00 | 0.00 | 0.00 | 63 | 1016.1 |
| 20260510102137 | 47 | 0 | 0.0 | 0.0 | 0.00 | 0.00 | 0.00 | 63 | 1016.0 |
| 20260510101636 | 47 | 0 | 0.0 | 0.0 | 0.00 | 0.00 | 0.00 | 64 | 1016.0 |
| 20260510101138 | 47 | 0 | 0.0 | 0.0 | 0.00 | 0.00 | 0.00 | 64 | 1015.8 |
| 20260510100637 | 47 | 0 | 0.0 | 0.0 | 0.00 | 0.00 | 0.00 | 63 | 1015.7 |
| 20260510100137 | 47 | 0 | 0.0 | 1.0 | 0.00 | 0.00 | 0.00 | 63 | 1015.7 |
| 20260510095636 | 47 | 58 | 1.0 | 1.0 | 0.00 | 0.00 | 0.00 | 62 | 1015.6 |
| 20260510095137 | 47 | 0 | 0.0 | 1.0 | 0.00 | 0.00 | 0.00 | 62 | 1015.5 |
| 20260510094636 | 48 | 0 | 0.0 | 1.0 | 0.00 | 0.00 | 0.00 | 62 | 1015.4 |
| 20260510094138 | 48 | 58 | 1.0 | 0.0 | 0.00 | 0.00 | 0.00 | 61 | 1015.4 |
| 20260510093636 | 48 | 0 | 0.0 | 0.0 | 0.00 | 0.00 | 0.00 | 60 | 1015.5 |
| 20260510093137 | 48 | 0 | 0.0 | 0.0 | 0.00 | 0.00 | 0.00 | 60 | 1015.6 |
| 20260510092636 | 48 | 0 | 0.0 | 1.0 | 0.00 | 0.00 | 0.00 | 60 | 1015.5 |
| 20260510092137 | 48 | 0 | 0.0 | 1.0 | 0.00 | 0.00 | 0.00 | 59 | 1015.5 |
| 20260510091637 | 48 | 58 | 1.0 | 2.0 | 0.00 | 0.00 | 0.00 | 59 | 1015.5 |
| 20260510091137 | 48 | 63 | 1.0 | 1.0 | 0.00 | 0.00 | 0.00 | 59 | 1015.5 |
| 20260510090636 | 48 | 62 | 1.0 | 2.0 | 0.00 | 0.00 | 0.00 | 59 | 1015.4 |
| 20260510090137 | 49 | 47 | 1.0 | 1.0 | 0.00 | 0.00 | 0.00 | 59 | 1015.3 |
| 20260510085636 | 49 | 63 | 1.0 | 1.0 | 0.00 | 0.00 | 0.00 | 59 | 1015.2 |
| 20260510085137 | 49 | 50 | 1.0 | 1.0 | 0.00 | 0.00 | 0.00 | 58 | 1015.2 |
| 20260510084636 | 49 | 23 | 1.0 | 1.0 | 0.00 | 0.00 | 0.00 | 58 | 1015.2 |
| 20260510084137 | 49 | 25 | 1.0 | 1.0 | 0.00 | 0.00 | 0.00 | 58 | 1015.1 |
| 20260510083636 | 49 | 26 | 2.0 | 1.0 | 0.00 | 0.00 | 0.00 | 58 | 1015.2 |
| 20260510083137 | 49 | 32 | 2.0 | 2.0 | 0.00 | 0.00 | 0.00 | 58 | 1015.1 |
| 20260510082636 | 49 | 67 | 1.0 | 2.0 | 0.00 | 0.00 | 0.00 | 58 | 1015.0 |
| 20260510082137 | 49 | 23 | 3.0 | 2.0 | 0.00 | 0.00 | 0.00 | 58 | 1014.9 |
| 20260510081637 | 49 | 56 | 1.0 | 3.0 | 0.00 | 0.00 | 0.00 | 58 | 1014.8 |
| 20260510081137 | 49 | 47 | 3.0 | 3.0 | 0.00 | 0.00 | 0.00 | 58 | 1014.7 |
| 20260510080636 | 49 | 49 | 8.0 | 3.0 | 0.00 | 0.00 | 0.00 | 58 | 1014.6 |
| 20260510080137 | 49 | 50 | 2.0 | 3.0 | 0.00 | 0.00 | 0.00 | 58 | 1014.5 |
| 20260510075637 | 49 | 43 | 4.0 | 3.0 | 0.00 | 0.00 | 0.00 | 58 | 1014.3 |
| 20260510075137 | 49 | 347 | 3.0 | 3.0 | 0.00 | 0.00 | 0.00 | 58 | 1014.3 |
| 20260510074637 | 49 | 30 | 3.0 | 3.0 | 0.00 | 0.00 | 0.00 | 58 | 1014.3 |
| 20260510074137 | 49 | 65 | 5.0 | 3.0 | 0.00 | 0.00 | 0.00 | 58 | 1014.4 |
| 20260510073636 | 49 | 44 | 7.0 | 4.0 | 0.00 | 0.00 | 0.00 | 58 | 1014.3 |
| 20260510073137 | 49 | 60 | 1.0 | 4.0 | 0.00 | 0.00 | 0.00 | 58 | 1014.2 |
| 20260510072636 | 49 | 8 | 3.0 | 4.0 | 0.00 | 0.00 | 0.00 | 57 | 1014.2 |
| 20260510072137 | 49 | 53 | 4.0 | 4.0 | 0.00 | 0.00 | 0.00 | 57 | 1014.0 |
| 20260510071637 | 50 | 1 | 4.0 | 4.0 | 0.00 | 0.00 | 0.00 | 56 | 1014.0 |
| 20260510071137 | 50 | 19 | 3.0 | 4.0 | 0.00 | 0.00 | 0.00 | 56 | 1013.9 |
| 20260510070636 | 50 | 32 | 3.0 | 4.0 | 0.00 | 0.00 | 0.00 | 57 | 1013.8 |
| 20260510070137 | 50 | 360 | 8.0 | 3.0 | 0.00 | 0.00 | 0.00 | 59 | 1013.8 |
| 20260510065637 | 50 | 68 | 3.0 | 3.0 | 0.00 | 0.00 | 0.00 | 61 | 1013.7 |
| 20260510065136 | 50 | 335 | 4.0 | 2.0 | 0.00 | 0.00 | 0.00 | 62 | 1013.6 |
| 20260510064636 | 50 | 31 | 1.0 | 2.0 | 0.00 | 0.00 | 0.00 | 62 | 1013.6 |
| 20260510064137 | 50 | 359 | 1.0 | 3.0 | 0.00 | 0.00 | 0.00 | 63 | 1013.5 |
| 20260510063636 | 51 | 359 | 1.0 | 4.0 | 0.00 | 0.00 | 0.00 | 64 | 1013.5 |
| 20260510063137 | 51 | 352 | 4.0 | 3.0 | 0.00 | 0.00 | 0.00 | 64 | 1013.5 |
| 20260510062636 | 51 | 359 | 4.0 | 2.0 | 0.00 | 0.00 | 0.00 | 64 | 1013.4 |
| 20260510062137 | 51 | 359 | 1.0 | 2.0 | 0.00 | 0.00 | 0.00 | 64 | 1013.3 |
| 20260510061636 | 51 | 43 | 3.0 | 2.0 | 0.00 | 0.00 | 0.00 | 64 | 1013.3 |
| 20260510061137 | 51 | 359 | 2.0 | 1.0 | 0.00 | 0.00 | 0.00 | 65 | 1013.2 |
| 20260510060636 | 51 | 1 | 1.0 | 1.0 | 0.00 | 0.00 | 0.00 | 65 | 1013.2 |
| 20260510060137 | 51 | 14 | 1.0 | 1.0 | 0.00 | 0.00 | 0.00 | 65 | 1013.0 |
| 20260510055636 | 51 | 20 | 2.0 | 1.0 | 0.00 | 0.00 | 0.00 | 66 | 1013.0 |
| 20260510055136 | 51 | 20 | 1.0 | 0.0 | 0.00 | 0.00 | 0.00 | 66 | 1012.9 |
| 20260510054636 | 50 | 0 | 0.0 | 1.0 | 0.00 | 0.00 | 0.00 | 66 | 1012.8 |
| 20260510054137 | 50 | 0 | 0.0 | 2.0 | 0.00 | 0.00 | 0.00 | 66 | 1012.7 |
| 20260510053636 | 50 | 76 | 3.0 | 1.0 | 0.00 | 0.00 | 0.00 | 67 | 1012.7 |
| 20260510053137 | 50 | 55 | 1.0 | 0.0 | 0.00 | 0.00 | 0.00 | 66 | 1012.4 |
| 20260510052636 | 50 | 0 | 0.0 | 0.0 | 0.00 | 0.00 | 0.00 | 65 | 1012.2 |
| 20260510052137 | 50 | 0 | 0.0 | 0.0 | 0.00 | 0.00 | 0.00 | 65 | 1012.0 |
| 20260510051636 | 50 | 0 | 0.0 | 0.0 | 0.00 | 0.00 | 0.00 | 65 | 1011.9 |
| 20260510051136 | 50 | 0 | 0.0 | 0.0 | 0.00 | 0.00 | 0.00 | 65 | 1011.9 |
| 20260510050636 | 51 | 0 | 0.0 | 0.0 | 0.00 | 0.00 | 0.00 | 64 | 1011.8 |
| 20260510050137 | 51 | 0 | 0.0 | 0.0 | 0.00 | 0.00 | 0.00 | 64 | 1011.9 |
| 20260510045637 | 51 | 0 | 0.0 | 0.0 | 0.00 | 0.00 | 0.00 | 64 | 1011.8 |
| 20260510045136 | 51 | 0 | 0.0 | 0.0 | 0.00 | 0.00 | 0.00 | 64 | 1011.7 |
| 20260510044636 | 51 | 0 | 0.0 | 0.0 | 0.00 | 0.00 | 0.00 | 64 | 1011.6 |
| 20260510044136 | 51 | 0 | 0.0 | 0.0 | 0.00 | 0.00 | 0.00 | 63 | 1011.5 |
| 20260510043636 | 51 | 0 | 0.0 | 0.0 | 0.00 | 0.00 | 0.00 | 62 | 1011.4 |
| 20260510043137 | 51 | 0 | 0.0 | 0.0 | 0.00 | 0.00 | 0.00 | 62 | 1011.4 |
| 20260510042636 | 52 | 0 | 0.0 | 0.0 | 0.00 | 0.00 | 0.00 | 62 | 1011.3 |
| 20260510042136 | 52 | 0 | 0.0 | 0.0 | 0.00 | 0.00 | 0.00 | 62 | 1011.2 |
| 20260510041636 | 52 | 0 | 0.0 | 0.0 | 0.00 | 0.00 | 0.00 | 61 | 1011.1 |
| 20260510041137 | 52 | 0 | 0.0 | 0.0 | 0.00 | 0.00 | 0.00 | 61 | 1011.1 |
| 20260510040636 | 52 | 0 | 0.0 | 0.0 | 0.00 | 0.00 | 0.00 | 60 | 1011.0 |
| 20260510040137 | 52 | 0 | 0.0 | 0.0 | 0.00 | 0.00 | 0.00 | 60 | 1011.0 |
| 20260510035636 | 52 | 0 | 0.0 | 0.0 | 0.00 | 0.00 | 0.00 | 60 | 1011.0 |
| 20260510035136 | 52 | 0 | 0.0 | 0.0 | 0.00 | 0.00 | 0.00 | 60 | 1010.9 |
| 20260510034636 | 52 | 0 | 0.0 | 0.0 | 0.00 | 0.00 | 0.00 | 60 | 1011.0 |
| 20260510034136 | 53 | 60 | 1.0 | 0.0 | 0.00 | 0.00 | 0.00 | 60 | 1010.9 |
| 20260510033636 | 53 | 0 | 0.0 | 0.0 | 0.00 | 0.00 | 0.00 | 59 | 1010.9 |
| 20260510033137 | 53 | 0 | 0.0 | 0.0 | 0.00 | 0.00 | 0.00 | 58 | 1010.9 |
| 20260510032636 | 53 | 0 | 0.0 | 0.0 | 0.00 | 0.00 | 0.00 | 58 | 1010.8 |
| 20260510032137 | 53 | 0 | 0.0 | 0.0 | 0.00 | 0.00 | 0.00 | 58 | 1010.8 |
| 20260510031636 | 53 | 0 | 0.0 | 0.0 | 0.00 | 0.00 | 0.00 | 57 | 1010.8 |
| 20260510031136 | 53 | 0 | 0.0 | 0.0 | 0.00 | 0.00 | 0.00 | 57 | 1010.7 |
| 20260510030636 | 54 | 0 | 0.0 | 0.0 | 0.00 | 0.00 | 0.00 | 56 | 1010.6 |
| 20260510030137 | 54 | 0 | 0.0 | 0.0 | 0.00 | 0.00 | 0.00 | 55 | 1010.6 |
| 20260510025636 | 54 | 0 | 0.0 | 0.0 | 0.00 | 0.00 | 0.00 | 56 | 1010.5 |
| 20260510025137 | 54 | 0 | 0.0 | 0.0 | 0.00 | 0.00 | 0.00 | 55 | 1010.3 |
| 20260510024636 | 54 | 60 | 2.0 | 0.0 | 0.00 | 0.00 | 0.00 | 55 | 1010.3 |
| 20260510024137 | 54 | 0 | 0.0 | 0.0 | 0.00 | 0.00 | 0.00 | 55 | 1010.2 |
| 20260510023636 | 54 | 0 | 0.0 | 0.0 | 0.00 | 0.00 | 0.00 | 55 | 1010.1 |
| 20260510023138 | 54 | 60 | 1.0 | 0.0 | 0.00 | 0.00 | 0.00 | 55 | 1010.0 |
| 20260510022637 | 55 | 0 | 0.0 | 1.0 | 0.00 | 0.00 | 0.00 | 54 | 1009.9 |
| 20260510022136 | 55 | 0 | 0.0 | 2.0 | 0.00 | 0.00 | 0.00 | 54 | 1009.7 |
| 20260510021636 | 55 | 53 | 1.0 | 1.0 | 0.00 | 0.00 | 0.00 | 54 | 1009.6 |
| 20260510021136 | 55 | 70 | 4.0 | 1.0 | 0.00 | 0.00 | 0.00 | 54 | 1009.5 |
| 20260510020636 | 55 | 0 | 0.0 | 1.0 | 0.00 | 0.00 | 0.00 | 54 | 1009.3 |
| 20260510020137 | 55 | 74 | 1.0 | 2.0 | 0.00 | 0.00 | 0.00 | 54 | 1009.3 |
| 20260510015636 | 55 | 15 | 1.0 | 2.0 | 0.00 | 0.00 | 0.00 | 53 | 1009.2 |
| 20260510015136 | 55 | 68 | 3.0 | 2.0 | 0.00 | 0.00 | 0.00 | 54 | 1009.0 |
| 20260510014636 | 55 | 359 | 1.0 | 2.0 | 0.00 | 0.00 | 0.00 | 54 | 1008.7 |
| 20260510014136 | 55 | 1 | 3.0 | 2.0 | 0.00 | 0.00 | 0.00 | 54 | 1008.5 |
| 20260510013636 | 55 | 70 | 3.0 | 2.0 | 0.00 | 0.00 | 0.00 | 53 | 1008.4 |
| 20260510013137 | 56 | 40 | 3.0 | 2.0 | 0.00 | 0.00 | 0.00 | 53 | 1008.3 |
| 20260510012636 | 56 | 360 | 2.0 | 2.0 | 0.00 | 0.00 | 0.00 | 53 | 1008.2 |
| 20260510012137 | 56 | 33 | 2.0 | 3.0 | 0.00 | 0.00 | 0.00 | 53 | 1008.1 |
| 20260510011636 | 56 | 61 | 5.0 | 4.0 | 0.00 | 0.00 | 0.00 | 52 | 1008.0 |
| 20260510011136 | 56 | 360 | 2.0 | 4.0 | 0.00 | 0.00 | 0.00 | 52 | 1007.9 |
| 20260510010637 | 57 | 76 | 3.0 | 4.0 | 0.00 | 0.00 | 0.00 | 51 | 1007.7 |
| 20260510010138 | 57 | 57 | 5.0 | 3.0 | 0.00 | 0.00 | 0.00 | 50 | 1007.7 |
| 20260510005636 | 57 | 71 | 4.0 | 3.0 | 0.00 | 0.00 | 0.00 | 50 | 1007.6 |
| 20260510005138 | 58 | 77 | 3.0 | 3.0 | 0.00 | 0.00 | 0.00 | 50 | 1007.6 |
| 20260510004636 | 58 | 68 | 4.0 | 3.0 | 0.00 | 0.00 | 0.00 | 50 | 1007.5 |
| 20260510004137 | 58 | 71 | 3.0 | 5.0 | 0.00 | 0.00 | 0.00 | 49 | 1007.4 |
| 20260510003636 | 58 | 352 | 5.0 | 5.0 | 0.00 | 0.00 | 0.00 | 48 | 1007.4 |
| 20260510003136 | 59 | 65 | 7.0 | 5.0 | 0.00 | 0.00 | 0.00 | 47 | 1007.2 |
| 20260510002636 | 59 | 51 | 5.0 | 4.0 | 0.00 | 0.00 | 0.00 | 46 | 1007.1 |
| 20260510002136 | 60 | 78 | 4.0 | 4.0 | 0.00 | 0.00 | 0.00 | 46 | 1007.0 |
| 20260510001636 | 60 | 96 | 5.0 | 4.0 | 0.00 | 0.00 | 0.00 | 46 | 1006.8 |
| 20260510001137 | 60 | 26 | 5.0 | 4.0 | 0.00 | 0.00 | 0.00 | 45 | 1006.8 |
| 20260510000637 | 61 | 56 | 3.0 | 5.0 | 0.00 | 0.00 | 0.00 | 45 | 1006.6 |
| 20260510000137 | 61 | 357 | 4.0 | 6.0 | 0.00 | 0.00 | 0.00 | 44 | 1006.5 |
| 20260509235637 | 62 | 1 | 4.0 | 6.0 | 0.00 | 0.00 | 0.00 | 44 | 1006.4 |
| 20260509235138 | 63 | 70 | 4.0 | 6.0 | 0.00 | 0.00 | 0.00 | 41 | 1006.4 |
| 20260509234637 | 64 | 3 | 8.0 | 6.0 | 0.00 | 0.00 | 0.00 | 40 | 1006.3 |
| 20260509234137 | 65 | 49 | 7.0 | 5.0 | 0.00 | 0.00 | 0.00 | 40 | 1006.1 |
| 20260509233637 | 66 | 44 | 5.0 | 5.0 | 0.00 | 0.00 | 0.00 | 39 | 1005.9 |
| 20260509233137 | 68 | 326 | 5.0 | 6.0 | 0.00 | 0.00 | 0.00 | 38 | 1005.8 |
| 20260509232637 | 70 | 20 | 4.0 | 7.0 | 0.00 | 0.00 | 0.00 | 36 | 1005.7 |
| 20260509232137 | 72 | 70 | 9.0 | 8.0 | 0.00 | 0.00 | 0.00 | 33 | 1005.7 |
| 20260509231637 | 72 | 288 | 13.0 | 6.0 | 0.00 | 0.00 | 0.00 | 31 | 1005.4 |
| 20260509231138 | 72 | 280 | 2.0 | 7.0 | 0.00 | 0.00 | 0.00 | 31 | 1005.2 |
| 20260509230637 | 73 | 266 | 4.0 | 7.0 | 0.00 | 0.00 | 0.00 | 31 | 1005.0 |
| 20260509230139 | 73 | 262 | 4.0 | 7.0 | 0.00 | 0.00 | 0.00 | 31 | 1005.0 |
| 20260509225637 | 73 | 278 | 6.0 | 8.0 | 0.00 | 0.00 | 0.00 | 31 | 1004.8 |
| 20260509225137 | 73 | 337 | 11.0 | 8.0 | 0.00 | 0.00 | 0.00 | 30 | 1004.7 |
| 20260509224637 | 73 | 341 | 10.0 | 9.0 | 0.00 | 0.00 | 0.00 | 30 | 1004.7 |
| 20260509224138 | 73 | 314 | 17.0 | 8.0 | 0.00 | 0.00 | 0.00 | 30 | 1004.8 |
| 20260509223637 | 74 | 279 | 9.0 | 7.0 | 0.00 | 0.00 | 0.00 | 29 | 1004.5 |
| 20260509223137 | 74 | 248 | 14.0 | 7.0 | 0.00 | 0.00 | 0.00 | 30 | 1004.6 |
| 20260509222637 | 74 | 248 | 8.0 | 7.0 | 0.00 | 0.00 | 0.00 | 30 | 1004.4 |
| 20260509222137 | 75 | 317 | 8.0 | 6.0 | 0.00 | 0.00 | 0.00 | 30 | 1004.4 |
| 20260509221638 | 75 | 252 | 6.0 | 6.0 | 0.00 | 0.00 | 0.00 | 30 | 1004.1 |
| 20260509221137 | 75 | 269 | 8.0 | 6.0 | 0.00 | 0.00 | 0.00 | 29 | 1004.1 |
| 20260509220637 | 75 | 253 | 4.0 | 6.0 | 0.00 | 0.00 | 0.00 | 29 | 1004.0 |
| 20260509220137 | 75 | 263 | 6.0 | 7.0 | 0.00 | 0.00 | 0.00 | 28 | 1003.9 |
| 20260509215637 | 75 | 233 | 5.0 | 7.0 | 0.00 | 0.00 | 0.00 | 29 | 1003.8 |
| 20260509215137 | 76 | 243 | 5.0 | 8.0 | 0.00 | 0.00 | 0.00 | 29 | 1003.7 |
| 20260509214637 | 76 | 271 | 9.0 | 7.0 | 0.00 | 0.00 | 0.00 | 30 | 1003.6 |
| 20260509214137 | 77 | 271 | 7.0 | 6.0 | 0.00 | 0.00 | 0.00 | 30 | 1003.5 |
| 20260509213637 | 77 | 314 | 5.0 | 5.0 | 0.00 | 0.00 | 0.00 | 30 | 1003.5 |
| 20260509213138 | 76 | 232 | 3.0 | 6.0 | 0.00 | 0.00 | 0.00 | 30 | 1003.5 |
| 20260509212636 | 76 | 295 | 2.0 | 6.0 | 0.00 | 0.00 | 0.00 | 29 | 1003.3 |
| 20260509212137 | 76 | 274 | 4.0 | 6.0 | 0.00 | 0.00 | 0.00 | 30 | 1003.3 |
| 20260509211637 | 76 | 321 | 10.0 | 5.0 | 0.00 | 0.00 | 0.00 | 30 | 1003.3 |
| 20260509211139 | 75 | 191 | 4.0 | 6.0 | 0.00 | 0.00 | 0.00 | 30 | 1003.2 |
| 20260509210637 | 75 | 266 | 4.0 | 9.0 | 0.00 | 0.00 | 0.00 | 30 | 1003.2 |
| 20260509210137 | 75 | 292 | 13.0 | 9.0 | 0.00 | 0.00 | 0.00 | 30 | 1003.3 |
| 20260509205637 | 76 | 247 | 9.0 | 7.0 | 0.00 | 0.00 | 0.00 | 30 | 1003.2 |
| 20260509205137 | 76 | 296 | 12.0 | 6.0 | 0.00 | 0.00 | 0.00 | 30 | 1003.2 |
| 20260509204637 | 76 | 240 | 3.0 | 6.0 | 0.00 | 0.00 | 0.00 | 30 | 1003.2 |
| 20260509204138 | 76 | 240 | 10.0 | 7.0 | 0.00 | 0.00 | 0.00 | 30 | 1003.2 |
| 20260509203637 | 77 | 276 | 7.0 | 6.0 | 0.00 | 0.00 | 0.00 | 29 | 1003.1 |
| 20260509203137 | 77 | 247 | 6.0 | 6.0 | 0.00 | 0.00 | 0.00 | 29 | 1003.2 |
| 20260509202636 | 77 | 253 | 2.0 | 6.0 | 0.00 | 0.00 | 0.00 | 30 | 1003.2 |
| 20260509202137 | 77 | 238 | 5.0 | 6.0 | 0.00 | 0.00 | 0.00 | 29 | 1003.3 |
| 20260509201636 | 77 | 312 | 4.0 | 5.0 | 0.00 | 0.00 | 0.00 | 30 | 1003.3 |
| 20260509201137 | 77 | 232 | 6.0 | 6.0 | 0.00 | 0.00 | 0.00 | 29 | 1003.3 |
| 20260509200637 | 77 | 254 | 7.0 | 6.0 | 0.00 | 0.00 | 0.00 | 30 | 1003.4 |
| 20260509200137 | 77 | 298 | 13.0 | 7.0 | 0.00 | 0.00 | 0.00 | 29 | 1003.6 |
| 20260509195636 | 76 | 243 | 4.0 | 8.0 | 0.00 | 0.00 | 0.00 | 30 | 1003.5 |
| 20260509195137 | 76 | 275 | 7.0 | 7.0 | 0.00 | 0.00 | 0.00 | 30 | 1003.4 |
| 20260509194636 | 76 | 271 | 4.0 | 6.0 | 0.00 | 0.00 | 0.00 | 30 | 1003.6 |
| 20260509194137 | 76 | 281 | 5.0 | 6.0 | 0.00 | 0.00 | 0.00 | 30 | 1003.5 |
| 20260509193637 | 75 | 243 | 4.0 | 6.0 | 0.00 | 0.00 | 0.00 | 30 | 1003.6 |
| 20260509193137 | 76 | 248 | 8.0 | 5.0 | 0.00 | 0.00 | 0.00 | 29 | 1003.6 |
| 20260509192636 | 76 | 252 | 4.0 | 5.0 | 0.00 | 0.00 | 0.00 | 28 | 1003.5 |
| 20260509192137 | 76 | 265 | 4.0 | 5.0 | 0.00 | 0.00 | 0.00 | 29 | 1003.5 |
| 20260509191637 | 75 | 225 | 10.0 | 5.0 | 0.00 | 0.00 | 0.00 | 29 | 1003.4 |
| 20260509191137 | 76 | 224 | 7.0 | 5.0 | 0.00 | 0.00 | 0.00 | 29 | 1003.5 |
| 20260509190636 | 76 | 184 | 9.0 | 5.0 | 0.00 | 0.00 | 0.00 | 28 | 1003.4 |
| 20260509190137 | 77 | 243 | 4.0 | 5.0 | 0.00 | 0.00 | 0.00 | 28 | 1003.4 |
| 20260509185637 | 77 | 232 | 1.0 | 5.0 | 0.00 | 0.00 | 0.00 | 27 | 1003.2 |
| 20260509185137 | 78 | 301 | 7.0 | 5.0 | 0.00 | 0.00 | 0.00 | 28 | 1003.4 |
| 20260509184637 | 78 | 217 | 4.0 | 5.0 | 0.00 | 0.00 | 0.00 | 28 | 1003.4 |
| 20260509184137 | 77 | 210 | 9.0 | 4.0 | 0.00 | 0.00 | 0.00 | 29 | 1003.3 |
| 20260509183637 | 76 | 302 | 6.0 | 5.0 | 0.00 | 0.00 | 0.00 | 30 | 1003.3 |
| 20260509183137 | 75 | 326 | 2.0 | 5.0 | 0.00 | 0.00 | 0.00 | 30 | 1003.3 |
| 20260509182637 | 75 | 222 | 4.0 | 4.0 | 0.00 | 0.00 | 0.00 | 30 | 1003.3 |
| 20260509182137 | 75 | 199 | 5.0 | 4.0 | 0.00 | 0.00 | 0.00 | 30 | 1003.5 |
| 20260509181637 | 75 | 270 | 1.0 | 4.0 | 0.00 | 0.00 | 0.00 | 30 | 1003.6 |
| 20260509181137 | 75 | 243 | 7.0 | 3.0 | 0.00 | 0.00 | 0.00 | 31 | 1003.5 |
| 20260509180637 | 74 | 210 | 3.0 | 5.0 | 0.00 | 0.00 | 0.00 | 31 | 1003.5 |
| 20260509180137 | 74 | 266 | 3.0 | 6.0 | 0.00 | 0.00 | 0.00 | 30 | 1003.6 |
| 20260509175636 | 75 | 346 | 8.0 | 6.0 | 0.00 | 0.00 | 0.00 | 30 | 1003.5 |
| 20260509175137 | 75 | 352 | 10.0 | 7.0 | 0.00 | 0.00 | 0.00 | 31 | 1003.6 |
| 20260509174636 | 75 | 294 | 9.0 | 7.0 | 0.00 | 0.00 | 0.00 | 31 | 1003.5 |
| 20260509174137 | 74 | 313 | 10.0 | 6.0 | 0.00 | 0.00 | 0.00 | 31 | 1003.6 |
| 20260509173636 | 74 | 349 | 3.0 | 6.0 | 0.00 | 0.00 | 0.00 | 32 | 1003.7 |
| 20260509173137 | 75 | 287 | 5.0 | 6.0 | 0.00 | 0.00 | 0.00 | 33 | 1003.7 |
| 20260509172636 | 75 | 297 | 8.0 | 5.0 | 0.00 | 0.00 | 0.00 | 34 | 1003.6 |
| 20260509172137 | 76 | 307 | 8.0 | 5.0 | 0.00 | 0.00 | 0.00 | 41 | 1003.7 |
| 20260509171637 | 76 | 290 | 2.0 | 4.0 | 0.00 | 0.00 | 0.00 | 44 | 1003.6 |
| 20260509171137 | 75 | 244 | 5.0 | 5.0 | 0.00 | 0.00 | 0.00 | 43 | 1003.7 |